Wind_Speed
19 18 17 16 15 14 14 14 14 14 13 13 12 12 11 11 10 9 8 7 7 6 6 6 6 7 7 7 7 7 7 7 7 7 6 7 7 7 8 8 10 11 13
22 21 20 18 17 16 15 16 16 16 16 16 15 15 15 14 14 13 12 11 10 9 9 9 9 9 10 10 10 10 10 10 10 10 10 10 10 10 11 11 11 12 12
26 24 22 21 19 18 17 17 17 17 18 18 18 18 18 17 17 17 17 16 15 13 13 12 12 12 12 13 12 12 12 12 12 12 12 13 13 13 14 14 14 14 15
31 28 26 24 22 20 19 19 19 20 20 20 20 20 20 20 20 20 20 20 19 18 16 16 15 15 15 15 15 14 14 14 14 14 14 14 15 15 16 17 17 17 18
35 33 31 27 25 22 21 21 21 22 22 21 21 21 21 21 21 21 22 22 22 21 20 19 18 18 17 17 17 16 16 15 15 15 15 16 16 16 17 18 19 20 20
35 33 31 30 27 25 24 24 23 24 24 24 24 23 23 22 22 22 23 23 24 24 23 22 21 21 20 19 18 18 17 16 16 16 16 16 17 17 18 18 19 20 21
36 33 32 32 30 27 26 26 25 26 26 26 26 26 25 25 24 24 24 25 25 25 25 25 24 23 23 22 21 20 19 18 17 16 17 17 17 18 18 19 20 21 21
38 35 33 32 32 30 29 28 26 26 28 28 27 27 26 26 26 26 26 25 25 25 26 26 26 26 26 25 24 22 21 19 18 18 18 18 18 18 18 19 20 21 21
42 38 35 34 33 31 30 29 29 28 28 28 28 28 28 28 28 28 28 27 27 27 27 27 27 28 28 27 26 24 23 21 20 19 19 19 19 19 20 20 20 21 21
44 41 39 37 36 34 32 31 30 30 29 29 29 29 29 31 30 29 29 29 29 29 29 28 28 29 29 29 28 26 25 23 22 21 21 20 20 20 20 20 20 21 21
44 42 41 40 38 37 36 34 31 30 29 29 28 27 28 31 32 32 31 31 31 30 30 29 29 29 29 29 29 28 27 25 24 23 22 22 21 21 21 21 21 22 22
43 41 40 39 39 38 37 36 33 31 30 28 28 26 26 28 30 33 33 34 33 33 32 31 30 30 30 30 30 29 28 27 26 25 24 23 23 23 23 22 22 22 23
42 41 40 39 38 38 37 35 34 32 30 28 27 27 26 26 29 31 33 35 35 35 35 34 33 32 31 31 30 30 29 29 28 27 26 25 25 25 24 24 23 23 24
38 39 39 38 37 37 36 35 34 32 31 29 28 28 28 27 27 30 32 34 36 37 37 37 35 33 32 31 30 30 30 30 29 28 28 27 26 26 25 25 24 24 25
32 33 34 34 34 35 34 34 33 33 33 32 31 31 31 31 31 30 31 33 35 37 38 37 35 33 32 31 31 31 31 31 30 30 29 28 27 27 26 26 25 25 25
26 28 30 32 33 33 33 34 34 35 36 35 35 35 35 35 34 33 32 32 34 35 36 37 36 34 32 31 30 31 31 31 31 31 30 29 28 27 26 26 26 26 26
22 24 27 29 31 33 34 35 36 37 38 39 39 39 38 37 37 36 36 35 36 36 36 36 36 34 33 31 30 30 30 30 30 30 30 29 28 27 26 25 25 26 26
18 21 24 26 29 32 34 36 37 38 39 40 40 40 40 39 37 37 37 36 36 36 35 35 34 32 31 30 29 29 28 29 28 29 28 28 27 25 25 24 25 26 26
12 15 18 21 24 26 29 31 32 34 35 36 37 38 38 38 38 37 37 37 36 35 34 33 31 31 30 29 28 28 27 26 26 26 25 24 23 23 22 23 24 25 25
7 10 12 14 16 18 21 23 24 26 28 29 30 32 33 34 35 36 37 37 35 34 33 32 31 29 29 28 27 26 25 24 24 23 22 21 20 20 21 21 22 24 24
5 7 9 12 14 16 17 19 21 22 23 24 25 26 27 28 30 32 33 33 32 31 32 31 29 27 26 25 24 23 22 22 20 19 18 18 18 19 20 20 21 22 22
7 7 8 9 11 13 15 17 19 20 21 22 22 23 24 24 25 27 28 29 29 28 28 28 27 25 24 23 22 21 20 19 18 18 17 17 17 17 18 18 18 19 20
11 11 10 10 12 13 15 16 17 18 19 19 20 20 20 21 22 21 20 21 23 24 23 23 22 21 21 20 20 19 18 18 17 16 16 16 16 15 15 16 16 17 18
14 14 14 14 14 14 15 16 17 18 18 18 18 19 19 18 18 17 15 16 18 19 19 20 19 18 18 18 17 17 17 16 15 14 14 14 14 13 14 14 15 16 17
17 17 17 17 16 16 16 15 16 16 17 17 17 18 18 18 17 16 15 14 14 14 16 17 17 16 15 15 14 14 14 13 13 13 12 12 12 12 12 12 13 14 16
18 19 19 19 19 17 16 14 13 14 15 16 17 18 19 19 18 17 16 14 12 13 13 13 14 14 13 13 13 13 12 12 11 11 11 10 10 10 9 9 10 11 12
Wind_Direction
248 249 249 248 247 247 247 248 247 246 245 244 242 239 236 238 242 247 250 253 259 266 271 274 274 275 275 273 274 276 277 279 280 279 277 276 274 274 275 274 270 264 259
245 247 248 249 249 249 249 250 250 250 250 250 249 246 242 240 240 243 245 247 249 253 257 262 265 267 269 269 268 270 271 270 270 272 272 272 274 275 276 278 279 275 271
242 244 247 248 250 251 252 253 253 253 253 253 253 251 249 246 243 242 242 244 245 248 251 254 257 260 262 263 263 266 268 268 267 267 267 267 269 271 273 275 277 277 274
240 240 243 245 249 252 254 256 257 257 257 257 257 256 253 250 248 245 243 243 244 246 249 251 254 255 257 258 259 261 264 267 268 267 266 266 267 269 270 271 273 273 273
241 240 241 242 246 251 256 258 261 262 261 261 260 259 257 254 251 247 245 244 243 245 247 250 253 255 256 257 256 257 261 265 267 268 267 268 269 270 270 270 271 272 273
244 244 243 243 245 250 255 259 262 263 263 263 262 261 260 257 253 249 248 246 245 245 247 249 252 254 256 257 256 255 258 262 265 268 270 271 272 272 272 272 272 272 273
247 246 247 247 248 250 255 259 263 265 265 265 263 262 262 259 254 252 250 249 249 249 249 251 252 253 254 256 255 255 255 260 264 269 271 272 273 273 273 273 273 273 273
249 251 252 253 253 255 257 260 265 267 267 266 263 262 262 260 256 252 252 252 252 252 252 253 253 254 254 255 255 254 255 258 262 267 270 272 273 274 274 274 274 274 274
252 253 254 255 258 259 259 261 263 267 267 267 265 264 259 258 257 255 253 252 254 255 256 256 255 254 254 255 254 253 254 257 261 266 269 271 272 274 275 275 275 275 276
254 255 256 257 258 260 262 266 266 267 268 269 267 265 259 254 253 254 254 254 255 256 258 258 256 254 254 254 253 253 255 257 260 265 269 271 272 273 274 276 276 277 277
252 253 256 257 258 261 264 266 267 269 269 267 266 265 261 254 251 250 253 255 256 257 257 257 256 254 253 253 251 252 255 258 260 265 269 271 272 272 274 275 277 278 278
250 252 253 256 258 259 261 263 264 264 263 264 263 264 261 257 255 252 250 252 254 255 256 256 256 256 255 254 252 252 254 257 261 265 268 270 271 271 272 274 276 277 277
244 248 250 253 256 257 258 258 259 257 257 257 258 260 261 261 256 253 253 252 251 253 254 255 256 257 256 255 253 252 253 257 260 264 267 270 270 270 271 273 275 276 277
240 242 246 250 252 253 253 253 253 251 250 253 255 256 258 259 258 256 256 253 251 251 252 253 254 255 256 254 253 252 253 256 260 264 267 268 269 270 270 271 273 276 277
237 239 242 244 246 247 247 247 247 247 249 251 253 256 257 257 258 258 258 256 252 249 249 250 249 253 253 254 253 254 254 256 258 262 265 267 268 268 269 270 272 275 278
232 235 239 241 242 243 244 245 246 248 250 253 255 257 258 258 258 258 257 256 252 250 249 247 247 249 251 252 254 255 255 255 258 260 261 264 265 266 267 269 272 275 278
232 235 238 240 242 244 246 247 249 251 253 254 256 256 257 257 257 256 256 255 252 251 250 247 246 246 248 251 253 255 257 258 259 258 259 261 262 262 264 267 271 274 278
238 240 242 244 245 247 249 251 252 253 254 255 255 255 255 254 253 252 253 254 252 251 249 248 247 246 249 251 254 256 259 261 259 258 258 258 259 261 264 267 271 275 278
247 248 249 250 251 251 252 253 253 254 254 254 254 252 252 250 249 249 251 251 249 250 249 247 247 247 248 250 252 256 259 260 258 258 257 257 258 261 265 269 273 276 279
264 259 257 256 255 255 254 254 254 254 253 253 252 250 249 247 246 247 247 245 247 246 244 245 246 245 246 248 251 253 255 256 256 254 254 255 258 261 266 271 277 279 281
310 288 277 272 268 265 263 261 258 256 254 252 250 248 246 243 242 241 240 240 242 242 242 243 242 244 245 246 248 249 250 250 249 248 250 253 257 263 269 274 278 281 284
359 335 311 296 286 280 275 270 265 261 256 251 248 247 246 242 239 238 237 237 236 238 237 236 235 237 240 242 243 241 240 242 242 243 247 253 260 265 270 275 278 281 284
9 356 340 322 306 293 286 278 270 264 258 254 248 243 239 235 231 231 230 227 227 226 225 226 227 227 231 232 231 231 234 236 238 242 246 252 258 263 269 272 277 284 287
13 4 352 338 326 312 300 287 273 265 258 253 247 241 234 227 219 213 212 213 215 216 216 217 216 217 219 221 223 226 229 231 237 242 246 251 256 261 267 272 278 286 291
13 5 358 348 337 325 312 296 280 267 258 250 243 237 230 223 214 207 202 197 198 200 200 202 203 203 206 208 212 217 222 229 235 240 244 249 256 263 269 275 282 289 294
9 6 1 356 349 340 328 311 290 273 259 245 236 230 225 219 210 203 200 196 191 185 182 183 185 186 189 197 204 211 218 225 231 235 241 246 254 260 268 275 283 291 299
Height
5906 5907 5907 5908 5908 5909 5910 5910 5911 5912 5912 5913 5914 5914 5915 5916 5916 5916 5916 5917 5917 5917 5917 5917 5916 5916 5916 5916 5916 5915 5915 5915 5914 5914 5914 5914 5914 5914 5914 5914 5914 5914 5915
5901 5902 5902 5903 5904 5905 5906 5907 5908 5908 5909 5910 5911 5911 5912 5913 5913 5914 5914 5915 5915 5915 5915 5915 5915 5915 5915 5915 5914 5914 5914 5913 5913 5913 5913 5913 5913 5912 5912 5912 5913 5913 5912
5895 5896 5897 5898 5899 5901 5902 5903 5904 5904 5905 5906 5907 5908 5909 5909 5910 5910 5911 5912 5912 5912 5912 5913 5913 5913 5913 5913 5912 5912 5912 5911 5911 5911 5910 5910 5910 5910 5910 5910 5910 5910 5910
5888 5890 5891 5892 5894 5895 5896 5898 5899 5900 5901 5902 5903 5903 5904 5905 5906 5906 5907 5908 5908 5909 5909 5909 5910 5910 5910 5910 5910 5910 5910 5909 5909 5908 5908 5907 5907 5907 5907 5907 5907 5907 5907
5880 5882 5884 5885 5887 5889 5891 5892 5893 5894 5895 5896 5897 5898 5899 5900 5901 5901 5902 5903 5904 5905 5905 5905 5906 5906 5906 5906 5907 5907 5907 5906 5906 5905 5905 5904 5904 5903 5903 5903 5903 5903 5903
5873 5875 5876 5878 5880 5882 5884 5885 5887 5888 5889 5890 5891 5892 5893 5894 5895 5896 5897 5898 5899 5900 5900 5901 5901 5902 5902 5902 5902 5903 5903 5903 5903 5902 5902 5901 5900 5900 5899 5899 5899 5898 5898
5866 5868 5869 5870 5873 5875 5877 5878 5880 5881 5882 5883 5884 5886 5887 5888 5889 5890 5891 5892 5893 5894 5895 5896 5896 5897 5897 5898 5898 5899 5899 5899 5899 5899 5898 5897 5897 5896 5895 5895 5894 5894 5894
5857 5859 5862 5863 5865 5867 5869 5871 5872 5873 5875 5876 5877 5879 5880 5881 5882 5884 5885 5886 5888 5888 5889 5890 5890 5891 5892 5893 5893 5894 5894 5895 5895 5895 5894 5894 5893 5892 5891 5891 5890 5890 5889
5848 5850 5853 5856 5858 5860 5862 5864 5865 5866 5867 5868 5870 5872 5873 5874 5875 5877 5878 5880 5881 5882 5883 5884 5884 5885 5886 5887 5888 5889 5890 5890 5890 5890 5890 5889 5889 5888 5887 5887 5886 5885 5885
5838 5841 5845 5847 5849 5851 5854 5856 5858 5859 5860 5861 5862 5863 5865 5866 5868 5869 5871 5872 5874 5875 5876 5877 5878 5879 5880 5881 5882 5884 5885 5885 5885 5885 5885 5884 5884 5883 5883 5882 5881 5881 5880
5829 5832 5836 5839 5841 5843 5846 5848 5850 5851 5853 5854 5855 5856 5857 5858 5860 5862 5864 5865 5866 5867 5869 5870 5871 5872 5873 5875 5876 5878 5879 5880 5880 5880 5880 5879 5879 5878 5878 5877 5877 5876 5875
5819 5823 5827 5830 5832 5835 5837 5840 5842 5844 5845 5846 5847 5848 5850 5851 5852 5854 5856 5857 5858 5860 5861 5863 5864 5866 5867 5868 5870 5872 5873 5874 5874 5874 5874 5874 5873 5873 5873 5872 5872 5871 5870
5809 5814 5818 5821 5824 5826 5829 5831 5833 5835 5837 5839 5840 5841 5842 5843 5844 5846 5847 5848 5850 5851 5853 5855 5857 5858 5860 5861 5863 5865 5866 5867 5868 5868 5868 5868 5868 5867 5867 5867 5866 5866 5865
5800 5804 5808 5812 5815 5817 5820 5822 5824 5827 5829 5831 5832 5833 5834 5836 5836 5838 5839 5840 5841 5843 5845 5847 5849 5850 5852 5854 5856 5857 5858 5860 5861 5861 5862 5862 5861 5861 5861 5861 5860 5860 5859
5792 5796 5800 5803 5806 5809 5811 5813 5815 5818 5820 5822 5823 5825 5826 5827 5828 5829 5830 5831 5833 5834 5836 5838 5840 5842 5844 5846 5848 5849 5851 5852 5853 5854 5854 5855 5855 5855 5855 5855 5854 5854 5853
5786 5789 5792 5795 5798 5800 5802 5805 5807 5809 5811 5812 5814 5815 5817 5818 5819 5820 5821 5822 5824 5825 5827 5830 5832 5834 5836 5838 5840 5841 5843 5844 5845 5846 5847 5847 5848 5848 5848 5848 5848 5848 5847
5781 5783 5785 5788 5790 5792 5794 5795 5797 5799 5801 5802 5804 5805 5807 5808 5809 5811 5812 5813 5815 5817 5818 5821 5823 5826 5828 5830 5831 5833 5835 5836 5837 5838 5839 5840 5840 5841 5841 5841 5841 5841 5840
5777 5778 5780 5781 5782 5784 5785 5786 5787 5789 5790 5791 5793 5794 5796 5798 5799 5801 5803 5804 5806 5808 5810 5812 5815 5817 5820 5822 5824 5825 5827 5828 5829 5830 5831 5833 5833 5834 5835 5835 5835 5835 5834
5774 5774 5775 5776 5776 5777 5777 5778 5778 5779 5780 5781 5782 5784 5785 5787 5789 5791 5793 5795 5797 5799 5802 5804 5806 5809 5811 5814 5816 5818 5820 5821 5822 5824 5825 5826 5827 5828 5829 5829 5829 5829 5828
5772 5772 5772 5771 5771 5771 5771 5771 5771 5771 5771 5772 5773 5774 5775 5777 5780 5782 5784 5786 5788 5791 5794 5796 5799 5801 5804 5806 5809 5811 5813 5815 5816 5817 5819 5820 5821 5822 5823 5824 5824 5823 5822
5770 5769 5769 5768 5767 5766 5765 5765 5764 5764 5764 5764 5765 5766 5767 5769 5771 5773 5775 5777 5780 5783 5786 5788 5791 5794 5797 5800 5803 5804 5807 5808 5810 5812 5814 5815 5817 5818 5818 5818 5818 5818 5817
5769 5767 5766 5764 5763 5761 5760 5759 5758 5757 5757 5757 5758 5759 5760 5762 5764 5766 5768 5770 5773 5776 5779 5782 5785 5788 5791 5794 5796 5799 5801 5804 5805 5808 5809 5811 5812 5813 5813 5813 5813 5813 5812
5768 5766 5763 5761 5758 5756 5754 5753 5751 5751 5751 5751 5752 5753 5754 5756 5758 5760 5762 5764 5766 5769 5772 5776 5779 5782 5785 5788 5791 5794 5797 5799 5801 5803 5805 5807 5808 5809 5809 5809 5809 5808 5807
5768 5765 5761 5758 5754 5751 5748 5746 5745 5744 5744 5745 5746 5747 5749 5751 5753 5755 5757 5760 5762 5764 5767 5771 5774 5777 5781 5784 5788 5790 5792 5795 5797 5800 5801 5803 5804 5804 5805 5805 5804 5804 5802
5768 5764 5759 5755 5750 5746 5742 5740 5738 5737 5738 5738 5740 5741 5744 5746 5749 5752 5754 5756 5758 5761 5764 5767 5770 5774 5777 5781 5784 5787 5790 5792 5794 5796 5797 5799 5800 5800 5801 5801 5800 5800 5798
5768 5763 5758 5753 5747 5742 5738 5734 5732 5731 5731 5732 5734 5736 5739 5742 5745 5749 5752 5754 5756 5759 5762 5765 5768 5772 5775 5779 5782 5785 5787 5789 5791 5793 5794 5795 5796 5797 5798 5797 5797 5796 5795